Regional Weather Roundup
Issued by NWS Sioux Falls, SD

Home | Current Version | Previous Version | Text Only | Print | Product List | Glossary Off
Versions: 1 2 3 4 5 6 7 8 9 10 11 12 13 14 15 16 17 18 19 20 21 22 23 24 25 26 27 28 29 30 31 32 33 34 35 36 37 38 39 40 41 42 43 44 45 46 47 48 49 50

000
ASUS43 KFSD 251210
RWRFSD

WEATHER ROUNDUP FOR SE SOUTH DAKOTA/SW MINNESOTA/NW IOWA
NATIONAL WEATHER SERVICE SIOUX FALLS SD
600 AM CST THU DEC 25 2014

NOTE: "FAIR" INDICATES FEW OR NO CLOUDS BELOW 12,000 FEET WITH NO
SIGNIFICANT WEATHER AND OR OBSTRUCTIONS TO VISIBILITY.


SDZ038>040-050-052>070-251300-
SOUTHEAST SOUTH DAKOTA

CITY           SKY/WX    TMP DP  RH WIND       PRES   REMARKS
CHAMBERLAIN    CLOUDY    27  25  92 N8        29.54R WCI  18
6HR MIN TEMP:  22; 6HR MAX TEMP:  28;

HURON          CLOUDY    27  24  89 N5        29.58R WCI  22
6HR MIN TEMP:  24; 6HR MAX TEMP:  27;

MADISON        CLOUDY    27  27 100 SE6       29.54R WCI  20
MITCHELL       CLOUDY    28  26  92 CALM      29.56R
6HR MIN TEMP:  26; 6HR MAX TEMP:  28;

SIOUX FALLS    CLOUDY    28  25  88 SE5       29.56R WCI  23
6HR MIN TEMP:  25; 6HR MAX TEMP:  28;

WINNER         CLOUDY    28  23  81 NW9       29.51R WCI  19
YANKTON        CLOUDY    27  23  86 E7        29.55R WCI  19
$$

MNZ071-072-080-081-089-090-097-098-251300-
SOUTHWEST MINNESOTA

CITY           SKY/WX    TMP DP  RH WIND       PRES   REMARKS
FAIRMONT       CLOUDY    30  27  86 S13       29.63R WCI  20
JACKSON        CLOUDY    30  28  93 S9        29.60S WCI  22
LUVERNE        CLOUDY    30  28  93 SE3       29.57R
MARSHALL       CLOUDY    28  25  86 SE7       29.58R WCI  21
6HR MIN TEMP:  27; 6HR MAX TEMP:  30;

MONTEVIDEO     CLOUDY    30  28  93 SW3       29.60R
PIPESTONE      CLOUDY    28  27  93 S7        29.54F WCI  21
REDWOOD FALLS  CLOUDY    30  27  88 S7        29.60S WCI  23
TRACY          CLOUDY    31  28  90 SW6       29.58R WCI  25
WINDOM           N/A     30  27  86 S10       29.59R WCI  21
WORTHINGTON    CLOUDY    28 -18  12 S9        29.58S WCI  20
$$

IAZ001>003-012>014-020>022-031-032-NEZ013-014-SDZ071-251300-
NORTHWEST IOWA

CITY           SKY/WX    TMP DP  RH WIND       PRES   REMARKS
CHEROKEE       CLOUDY    30  28  93 S8        29.60S WCI  22
DENISON        CLOUDY    30  28  93 S10       29.61R WCI  21
ESTHERVILLE    CLOUDY    28  27  96 S13       29.62R WCI  17
LE MARS        CLOUDY    30  28  93 S5        29.59R WCI  25
ORANGE CITY    CLOUDY    30  27  86 SE3       29.57S
SHELDON        CLOUDY    28  28 100 SE12      29.57S WCI  18
SIOUX CITY     CLOUDY    31  27  85 SE12      29.58S WCI  22
6HR MIN TEMP:  28; 6HR MAX TEMP:  31;

SPENCER        CLOUDY    29  25  85 S8        29.61R WCI  21
6HR MIN TEMP:  28; 6HR MAX TEMP:  29;

STORM LAKE     CLOUDY    28  27  93 S12       29.60S WCI  18
$$

ABBREVIATIONS USED IN REMARKS
   TC - TEMPERATURE IN CELSIUS
  WCI - WIND CHILL INDEX
   HX - HEAT INDEX
  VSB - VISIBILITY



USA.gov is the U.S. government's official web portal to all federal, state and local government web resources and services.